ECMWFNIL_con_mucape_057.txt.gz
CAPE
1199 1182 1132 1060 1051 1018 962 914 861 775 755 784 1004 1326 1496 1619 1672 1835 1968 1972 1976 2068 2227 2361 2431 2448 2495 2546 2590 2686 2796 2840 2804 2762 2754 2621 2257 1864 1524 1268 352 0
1230 1181 1159 1113 1055 1034 991 900 816 790 763 718 788 1019 1304 1448 1544 1632 1866 1963 1985 2046 2164 2342 2482 2517 2529 2550 2598 2659 2720 2743 2732 2745 2799 2710 2409 2200 1956 1568 929 6
1261 1207 1150 1126 1068 1046 1052 975 893 844 884 776 736 864 1068 1324 1444 1491 1656 1849 1936 2004 2104 2267 2446 2569 2577 2585 2621 2684 2780 2799 2701 2744 2790 2701 2468 2428 2435 2169 1412 769
1280 1227 1179 1147 1082 1019 1054 1092 1028 970 960 1004 910 965 1092 1298 1420 1493 1559 1997 1815 1896 2020 2171 2332 2499 2600 2625 2644 2696 2763 2812 2802 2789 2768 2713 2576 2528 2582 2421 1649 927
1287 1252 1186 1138 1097 999 961 1123 1149 1062 1000 1101 1120 1078 1230 1348 1462 1504 1548 1674 1785 1843 1946 2090 2235 2349 2497 2584 2623 2636 2688 2758 2822 2852 2727 2598 2562 2538 2586 2530 2051 1392
1282 1256 1210 1144 1095 1037 944 980 1223 1187 1056 1036 1215 1226 1303 1394 1480 1520 1557 1587 1730 1826 1904 2019 2140 2250 2344 2457 2507 2518 2525 2588 2719 2843 2811 2603 2493 2504 2539 2525 2348 2043
1256 1258 1239 1186 1112 1053 1010 928 1035 1285 1268 1127 1177 1352 1402 1471 1508 1548 1572 1579 1631 1754 1841 1940 2058 2165 2253 2337 2394 2410 2426 2475 2567 2699 2794 2729 2494 2424 2434 2461 2397 2206
1248 1239 1242 1220 1171 1102 1098 1072 995 1115 1380 1390 1296 1366 1514 1581 1590 1600 1604 1604 1600 1652 1761 1850 1978 2107 2221 2292 2341 2353 2379 2402 2480 2582 2630 2673 2559 2376 2356 2360 2343 2220
1228 1227 1231 1217 1182 1133 1100 1143 1143 1114 1234 1480 1535 1459 1518 1654 1718 1726 1724 1698 1645 1608 1665 1773 1900 2032 2184 2307 2335 2350 2370 2382 2429 2490 2528 2536 2520 2403 2287 2290 2270 2193
1248 1229 1210 1193 1188 1170 1148 1152 1197 1225 1265 1429 1587 1628 1602 1642 1743 1816 1871 1860 1795 1709 1653 1724 1845 1962 2094 2248 2338 2354 2363 2377 2397 2438 2480 2508 2511 2417 2259 2237 2250 2218
1269 1242 1210 1196 1190 1198 1194 1173 1196 1231 1269 1406 1560 1678 1713 1708 1737 1809 1883 1947 1952 1892 1813 1763 1818 1947 2055 2150 2264 2339 2358 2368 2392 2418 2446 2458 2473 2414 2285 2164 2165 2167
1330 1299 1277 1254 1237 1239 1237 1222 1222 1231 1247 1330 1463 1645 1767 1782 1792 1846 1886 1933 1974 1986 1934 1870 1843 1910 2045 2138 2216 2307 2360 2368 2377 2382 2378 2392 2388 2374 2310 2208 2124 2075
1446 1404 1356 1334 1322 1310 1296 1287 1271 1252 1248 1274 1345 1502 1674 1806 1844 1862 1923 1942 1945 1968 1994 1986 1955 1942 2004 2114 2209 2277 2343 2383 2374 2360 2358 2340 2325 2312 2267 2232 2176 2115
1610 1544 1488 1450 1412 1396 1375 1356 1326 1298 1287 1279 1279 1339 1462 1681 1858 1898 1922 1967 1986 1956 1941 1957 2005 2041 2055 2080 2146 2225 2296 2362 2379 2362 2338 2322 2307 2286 2268 2236 2214 2178
1763 1747 1693 1625 1572 1517 1468 1440 1412 1379 1346 1333 1321 1313 1314 1413 1658 1895 1972 1983 2000 2012 2003 1952 1914 1953 2039 2093 2119 2172 2225 2291 2351 2378 2367 2350 2332 2324 2324 2328 2308 2263
1905 1903 1878 1836 1774 1721 1675 1612 1512 1475 1430 1399 1382 1363 1348 1333 1356 1560 1855 1995 2017 2016 2023 2050 2041 1984 1952 2023 2092 2140 2195 2236 2288 2352 2407 2406 2384 2360 2358 2368 2376 2368
2084 2059 2037 2014 1982 1924 1882 1834 1740 1616 1542 1483 1442 1425 1401 1380 1348 1350 1466 1733 1946 2005 2002 1984 2056 2113 2103 2070 2104 2177 2193 2236 2270 2332 2408 2476 2480 2466 2428 2390 2382 2397
2336 2272 2239 2206 2168 2136 2074 2027 1983 1890 1730 1595 1528 1497 1471 1440 1410 1383 1357 1401 1577 1824 1971 1971 1940 1980 2104 2188 2217 2218 2240 2273 2299 2325 2376 2461 2534 2565 2544 2488 2419 2376
2550 2510 2466 2420 2374 2318 2268 2238 2241 2186 2078 1887 1674 1591 1552 1539 1510 1455 1437 1399 1405 1494 1674 1884 1962 1941 1962 2049 2181 2246 2274 2294 2321 2352 2365 2397 2463 2541 2583 2570 2540 2487
2682 2654 2620 2588 2553 2514 2475 2458 2478 2444 2374 2262 2088 1856 1662 1622 1596 1577 1547 1521 1482 1455 1478 1595 1776 1898 1980 2000 2003 2087 2192 2236 2257 2285 2344 2370 2392 2435 2484 2536 2562 2547
2790 2764 2742 2720 2697 2682 2657 2676 2666 2617 2572 2557 2484 2364 2168 1922 1684 1666 1647 1614 1571 1532 1501 1514 1596 1738 1901 1983 2000 2016 2058 2177 2235 2215 2225 2296 2356 2392 2416 2446 2478 2492
2955 2915 2867 2850 2845 2847 2862 2863 2823 2829 2897 2926 2892 2799 2676 2484 2257 1987 1726 1674 1675 1655 1601 1565 1561 1640 1806 1930 2014 2042 2037 2043 2154 2210 2224 2231 2274 2333 2369 2395 2428 2460
3183 3111 3074 3052 3050 3050 3042 3012 2996 3057 3148 3193 3203 3156 3044 2878 2652 2414 2125 1798 1717 1738 1713 1685 1664 1676 1751 1906 2044 2108 2126 2135 2126 2119 2161 2217 2268 2322 2362 2390 2421 2462
3428 3366 3326 3282 3254 3238 3189 3169 3172 3236 3320 3375 3408 3348 3245 3114 2976 2804 2563 2258 1910 1709 1755 1768 1766 1747 1768 1851 1994 2127 2209 2268 2289 2270 2255 2238 2270 2319 2372 2424 2467 2494
3620 3601 3540 3497 3456 3409 3351 3344 3360 3412 3464 3494 3507 3490 3476 3389 3222 3031 2824 2591 2332 2052 1740 1779 1785 1790 1813 1834 1875 2006 2138 2254 2304 2318 2300 2296 2320 2330 2338 2381 2450 2502
3759 3767 3724 3676 3628 3569 3532 3520 3528 3558 3595 3589 3572 3556 3559 3521 3432 3277 3094 2894 2702 2543 2369 2147 1878 1855 1880 1899 1905 1929 2021 2144 2239 2258 2276 2315 2343 2367 2378 2405 2444 2506

ECMWFNIL_con_mucape_060.txt.gz
CAPE
826 764 765 776 838 874 895 906 938 956 994 1015 1082 1283 1494 1661 1706 1806 1908 1839 1858 1914 1970 1979 2095 2146 2242 2321 2496 2610 2676 2584 2590 2570 2644 2723 2745 2666 2595 2394 1923 1577
941 888 950 817 828 867 896 904 921 930 958 975 998 1074 1274 1471 1582 1748 1813 1814 1916 1946 1956 2021 2113 2191 2250 2302 2315 2474 2548 2577 2591 2573 2629 2684 2684 2602 2599 2573 2377 2029
1002 961 924 884 866 886 921 942 938 938 930 942 937 930 1022 1282 1464 1594 1710 1810 1841 1904 1896 2010 2138 2257 2276 2311 2290 2375 2452 2459 2520 2546 2608 2675 2660 2596 2607 2617 2580 2379
1076 1014 984 969 941 936 937 940 946 923 918 912 896 847 812 1196 1288 1445 1588 2037 1786 1815 1879 1960 2155 2286 2369 2388 2344 2347 2393 2432 2467 2468 2554 2650 2711 2694 2690 2713 2662 2510
1122 1075 1028 1012 1006 974 964 948 951 946 934 906 874 818 829 1076 1205 1278 1409 1647 1756 1744 1782 1922 2059 2228 2393 2452 2412 2427 2360 2384 2363 2414 2509 2626 2720 2741 2748 2746 2700 2618
1105 1088 1068 1049 1040 1019 983 972 972 964 944 909 879 820 730 896 1105 1217 1291 1411 1605 1670 1714 1786 1951 2098 2265 2424 2445 2442 2458 2383 2354 2399 2479 2570 2632 2687 2756 2752 2676 2523
1110 1105 1110 1074 1049 1026 1014 1014 1004 980 959 912 872 834 789 884 1033 1141 1232 1317 1462 1608 1638 1680 1805 1975 2122 2315 2412 2449 2445 2436 2399 2328 2397 2467 2507 2606 2696 2766 2730 2582
1113 1125 1116 1102 1073 1067 1057 1038 1027 994 971 937 889 856 917 997 1055 1130 1206 1258 1360 1506 1624 1661 1745 1865 2015 2174 2315 2356 2397 2296 2345 2292 2314 2330 2352 2417 2506 2595 2712 2627
1119 1112 1121 1118 1108 1097 1093 1089 1068 1018 960 954 934 907 1027 1082 1119 1146 1243 1282 1320 1411 1527 1628 1720 1810 1920 2088 2199 2274 2328 2316 2312 2322 2270 2262 2264 2299 2343 2414 2520 2547
1141 1132 1126 1137 1146 1124 1130 1119 1088 1046 980 1042 1055 964 1043 1207 1208 1223 1276 1319 1345 1404 1423 1551 1653 1766 1881 2013 2135 2199 2232 2276 2281 2266 2296 2280 2268 2246 2247 2290 2344 2384
1195 1163 1156 1160 1160 1156 1158 1132 1094 1060 1003 966 1120 1166 1128 1184 1343 1349 1366 1388 1401 1435 1447 1466 1561 1676 1790 1926 2076 2154 2190 2237 2246 2240 2271 2298 2302 2289 2214 2237 2266 2277
1238 1217 1196 1182 1182 1181 1170 1138 1099 1058 1030 996 1068 1213 1287 1280 1318 1444 1482 1512 1525 1538 1528 1504 1509 1581 1700 1842 1974 2122 2208 2237 2272 2274 2267 2291 2299 2298 2274 2223 2235 2237
1249 1251 1228 1202 1192 1192 1166 1153 1130 1093 1064 1038 1040 1138 1249 1358 1374 1422 1543 1590 1624 1647 1654 1647 1586 1545 1655 1754 1865 1998 2151 2265 2296 2312 2324 2308 2291 2282 2200 2203 2225 2240
1210 1217 1214 1199 1186 1184 1180 1162 1135 1113 1094 1066 1045 1190 1225 1300 1410 1431 1513 1606 1631 1650 1724 1757 1728 1678 1652 1750 1843 1946 2066 2181 2267 2310 2309 2312 2327 2333 2244 2227 2242 2250
1152 1165 1168 1172 1171 1180 1177 1155 1149 1134 1126 1114 1090 1103 1247 1306 1376 1460 1494 1549 1629 1676 1707 1737 1762 1788 1780 1783 1825 1930 2062 2147 2218 2291 2322 2340 2339 2318 2262 2244 2256 2265
1167 1175 1179 1190 1191 1200 1180 1166 1163 1172 1168 1157 1140 1119 1136 1281 1332 1429 1502 1560 1602 1684 1733 1736 1762 1813 1784 1730 1732 1916 1977 2077 2144 2221 2306 2353 2384 2369 2320 2268 2255 2258
1341 1316 1247 1268 1257 1229 1220 1216 1214 1210 1207 1204 1190 1175 1159 1164 1296 1303 1409 1540 1624 1651 1724 1762 1799 1802 1714 1730 1789 1817 1859 2043 2093 2159 2228 2361 2390 2364 2411 2399 2385 2378
1447 1491 1489 1414 1317 1311 1292 1284 1278 1278 1288 1283 1276 1282 1298 1277 1224 1195 1281 1377 1496 1624 1694 1734 1796 1717 1740 1763 1784 1822 1857 1958 2092 2124 2173 2272 2347 2422 2458 2448 2458 2413
1576 1624 1637 1614 1558 1496 1396 1386 1389 1390 1387 1382 1388 1392 1414 1458 1436 1325 1251 1220 1325 1442 1553 1672 1784 1662 1725 1794 1842 1856 1876 1874 1884 2060 2175 2213 2294 2382 2469 2455 2484 2478
1758 1756 1774 1778 1762 1721 1675 1556 1542 1540 1518 1516 1522 1538 1573 1601 1598 1562 1450 1334 1283 1258 1382 1442 1548 1594 1664 1730 1786 1853 1910 1921 1918 1925 2113 2205 2280 2341 2425 2500 2530 2532
1977 1947 1927 1928 1934 1914 1898 1849 1738 1706 1696 1704 1699 1715 1761 1810 1843 1823 1757 1628 1462 1340 1300 1273 1259 1311 1449 1598 1702 1773 1824 1868 1936 1949 1941 2188 2300 2353 2396 2438 2494 2554
2202 2166 2134 2134 2107 2089 2076 2047 1927 1911 1900 1886 1925 2019 2084 2153 2189 2179 2132 2042 1918 1738 1560 1379 1332 1298 1291 1345 1511 1657 1735 1780 1838 1878 1887 1972 2185 2287 2374 2450 2474 2512
2408 2368 2357 2343 2316 2280 2254 2184 2104 2099 2047 2129 2228 2293 2379 2429 2458 2441 2425 2379 2314 2222 2080 1927 1709 1521 1414 1362 1356 1460 1577 1668 1756 1780 1801 1828 1950 2109 2243 2333 2404 2468
2575 2569 2558 2540 2514 2485 2447 2292 2289 2324 2381 2441 2490 2550 2623 2672 2732 2760 2754 2700 2637 2548 2414 2305 2148 2032 1844 1636 1447 1416 1442 1534 1581 1642 1680 1723 1766 1935 2078 2203 2316 2128
2698 2709 2697 2612 2470 2572 2632 2687 2706 2731 2752 2795 2815 2821 2876 2928 2992 3026 3027 3006 2954 2890 2768 2691 2560 2430 2271 2081 1863 1616 1476 1486 1530 1568 1592 1643 1708 1836 1940 2080 2210 2115
2822 2868 2843 2552 2634 2700 2772 2812 2850 2902 2938 2961 2999 2986 3015 3030 3076 3163 3225 3252 3236 3163 3084 2966 2858 2730 2563 2379 2186 1969 1738 1554 1582 1597 1627 1663 1722 1792 1976 2031 2136 2270

ECMWFNIL_con_mucape_063.txt.gz
CAPE
1823 1808 1728 1784 1832 1754 1908 2000 1931 2027 2284 2128 2285 2380 2603 3010 3083 3170 3241 3405 3486 3422 3501 3556 3499 3352 3262 3360 3555 3529 3387 3441 3183 3264 3548 3349 3435 3404 3277 3364 3298 3238
1819 1791 1763 1782 1938 2073 2197 2062 2094 2075 2379 2423 2310 2492 2875 3060 3114 3030 3211 3328 3413 3308 3478 3429 3470 3423 3381 3184 3566 3461 3504 3422 3348 3366 3705 3733 3484 3429 3351 3372 3178 3076
1840 1794 1771 1720 1733 1831 1590 1871 2082 2114 2133 2130 2234 2578 2671 2724 2798 2993 3122 3241 3206 3102 3393 3488 3443 3494 3425 3449 3720 3556 3400 3625 3494 3287 3657 3869 3628 3433 3573 3149 3036 3055
1874 1826 1632 1512 1548 1649 1666 1908 2064 2025 1894 2106 2033 2048 2224 2261 2544 2830 2994 3112 3189 3300 3339 3443 3306 3335 3486 3528 3751 3539 3492 3786 3584 3645 3642 3821 3834 3684 3668 3584 3346 3071
1902 1876 1690 1629 1575 1728 1845 1892 1689 1767 1753 1854 1857 1944 2213 2366 2532 2496 2729 2979 3132 3206 3381 3397 3448 3354 3570 3610 3725 3612 3502 3583 3683 3672 3384 3475 3690 3552 3705 3754 3751 3533
1976 1985 1919 1817 1773 1892 1804 1727 1668 1652 1724 1653 1894 1809 1833 2134 2247 2288 2508 2593 2746 2772 2745 3010 3229 3250 3368 3575 3672 3505 3354 3278 3341 3484 3259 3228 3404 3529 3571 3601 3746 3697
1966 2006 1948 1877 1860 1892 1783 1720 1770 1757 1671 1630 1859 1791 1744 1858 2105 2219 2405 2490 2405 2592 2560 2824 3233 3235 3271 3433 3641 3487 3335 3367 3333 3207 3235 3254 3442 3630 3666 3664 3709 3702
1937 1924 1954 1884 1855 1799 1825 1780 1833 1882 1801 1799 1823 1889 1808 1728 1962 2042 2268 2336 2259 2482 2776 2837 3257 3457 3186 3288 3484 3524 3542 3284 3231 3202 3019 3055 3226 3382 3771 3638 3832 3854
1974 2001 1984 1944 1853 1826 1791 1707 1802 1838 1830 1816 1649 1645 1867 1758 1864 1851 2183 2404 2320 2430 2810 2865 3131 3159 3127 3144 3291 3482 3588 3425 3271 3412 3451 3346 3427 3602 3720 3744 3672 3828
2094 2046 1915 1917 1835 1812 1782 1715 1681 1776 1869 1794 1649 1562 1738 1874 1819 1883 2233 2539 2428 2536 2743 2765 2883 2937 2962 3075 3269 3400 3499 3612 3643 3666 3599 3598 3735 3727 3745 3838 3744 3799
1991 1954 1917 1886 1820 1768 1810 1741 1704 1693 1777 1739 1678 1595 1660 1865 1973 2059 2257 2532 2282 2406 2634 2709 2731 2876 2942 2829 2966 3165 3382 3342 3516 3700 3710 3677 3693 3753 3666 3756 3800 3625
1979 1923 1854 1840 1804 1813 1791 1767 1737 1695 1719 1769 1734 1744 1739 1787 2015 2083 2142 2436 2384 2389 2580 2790 2829 2923 3009 2992 2780 2957 3198 3222 3326 3580 3545 3656 3682 3620 3683 3696 3583 3693
1936 1938 1892 1829 1911 1850 1826 1823 1759 1717 1673 1729 1764 1802 1825 1832 1883 2108 2200 2315 2533 2530 2562 2776 2915 2899 3028 3099 3003 3019 3166 3289 3089 3299 3384 3469 3506 3440 3377 3467 3506 3495
2030 2017 1980 2021 1999 2056 2005 1881 1843 1808 1820 1765 1834 1852 1846 1882 1899 1988 2239 2266 2408 2571 2582 2681 2886 2894 3001 3084 3074 3040 3083 3208 3233 3166 3202 3305 3388 3391 3302 3233 3369 3431
2192 2139 2113 2167 2121 2216 2088 2020 1955 1948 1946 1933 1943 1901 1846 1906 1940 1961 2145 2300 2288 2479 2578 2584 2599 2716 2730 2924 3016 3049 3031 2947 3134 3217 3211 3244 3318 3307 3338 3351 3286 3258
2471 2323 2300 2350 2311 2386 2345 2197 2058 2046 1960 2011 2069 2024 2015 2009 2040 2076 2105 2236 2380 2523 2608 2630 2576 2601 2548 2249 2396 2872 3058 2879 2960 3163 3216 3110 3278 3400 3260 3283 3328 3254
2584 2467 2561 2483 2370 2405 2427 2399 2241 2172 2134 2226 2200 2176 2124 2196 2196 2138 2121 2195 2258 2346 2475 2474 2510 2500 2223 2039 1910 1894 2517 3046 3064 3190 3301 3301 3153 3391 3391 3229 3274 3316
2339 2489 2492 2505 2486 2453 2468 2460 2345 2281 2280 2341 2311 2262 2339 2295 2318 2217 2289 2144 2134 2220 2288 2359 2470 2194 2026 1888 1767 1714 1730 2472 2824 3000 2989 3116 3208 3105 3227 3310 3267 3229
2479 2586 2548 2488 2503 2465 2474 2499 2501 2456 2416 2348 2204 2209 2208 2335 2313 2181 2277 2316 2223 2333 2257 2263 2366 2125 1912 1749 1683 1618 1647 1737 2368 2680 2795 2877 2998 3152 3150 3307 3411 3387
2664 2520 2501 2554 2561 2516 2526 2512 2483 2455 2316 2165 2125 2220 2316 2311 2185 2260 2304 2445 2366 2343 2435 2342 2300 2119 1903 1739 1609 1576 1588 1604 2128 2377 2653 2853 2965 3076 3195 3232 3428 3556
2582 2565 2640 2648 2660 2598 2590 2556 2489 2470 2391 2229 2148 2194 2374 2403 2272 2240 2290 2369 2341 2279 2365 2343 2197 1976 1897 1744 1618 1554 1544 1576 1892 2289 2486 2744 2920 3119 3257 3235 3323 3531
2582 2635 2711 2771 2750 2700 2642 2584 2581 2608 2599 2422 2314 2299 2327 2330 2395 2250 2293 2364 2342 2302 2198 2244 2218 1753 1688 1647 1605 1556 1529 1540 1673 2352 2536 2615 2838 3104 3220 3339 3355 3370
2515 2526 2697 2863 2822 2732 2713 2649 2683 2737 2682 2599 2460 2350 2331 2346 2405 2348 2392 2387 2402 2388 2346 2364 2354 2049 1672 1631 1564 1463 1454 1491 1698 2183 2531 2670 2822 2991 3230 3295 3358 3449
2648 2633 2818 2940 2885 2896 2876 2730 2653 2648 2614 2638 2571 2415 2277 2396 2452 2479 2443 2464 2402 2418 2378 2495 2454 2322 1998 2008 1955 1832 1708 1555 2007 2279 2538 2732 2845 3027 3136 3260 3359 2991
2901 2929 3085 3037 3075 3064 2936 2867 2842 2872 2748 2771 2673 2542 2506 2582 2522 2558 2587 2576 2505 2427 2120 2205 2433 2453 2346 2318 2285 2229 2145 2025 2063 2274 2459 2671 2685 2831 3047 3121 3290 3089
3006 3248 3290 3106 3226 3249 3093 3064 3062 2981 3002 3013 2952 2765 2787 2796 2764 2748 2756 2757 2684 2435 2483 2556 2582 2611 2631 2636 2604 2549 2455 2351 2244 2320 2380 2546 2700 2607 2782 3086 3162 3366

ECMWFNIL_con_mucape_069.txt.gz
CAPE
2734 2905 2861 2604 1950 1561 1655 2119 1950 1718 1361 670 875 1499 1329 1452 1786 1264 1614 2139 2760 3091 2831 2948 3220 3343 3119 3012 3148 3073 2852 2846 2783 2232 2606 2611 2574 2840 3003 3178 3497 3520
2504 2919 2991 2788 2608 2310 1919 1902 2223 1888 1898 1480 674 1105 1625 1552 2023 1767 1722 1977 2446 2924 2962 2817 3168 3419 3213 2612 2898 2999 3061 2961 2987 2178 2353 2708 2847 2539 2357 2868 2986 3190
2438 2720 2866 2849 2752 2512 1931 1868 2077 2133 1796 1723 1056 946 1403 1770 2163 2376 2174 2056 2090 2016 2710 2795 2915 3329 3332 2925 2767 2859 2736 3212 3225 2256 2187 2584 2696 2423 2391 1926 2630 2906
2596 2737 2493 2720 2646 2597 2287 2014 2054 2225 1744 1819 1749 929 868 1057 1747 2612 2769 2605 2110 2086 1984 2700 2738 2760 3238 3204 3163 3010 2519 2830 3011 2867 2503 2720 2877 2604 2391 2261 2339 2493
2554 2643 2652 2778 2560 2758 2853 2134 1948 2200 1984 1603 1827 1677 1328 1408 1780 2193 2837 2847 2605 2420 2338 2495 2828 2677 2764 3031 3131 3172 2659 2665 2794 3232 3310 3172 3276 3191 2713 2284 2362 2360
2984 2942 2868 2621 2612 2863 2892 2641 2346 2022 2260 1529 1818 1922 1678 1683 1869 2267 2781 3107 2908 2258 1882 2204 2575 2667 2687 2998 3199 3223 2702 2127 1912 2888 3308 3519 3206 2503 2225 2218 2507 2644
2918 2793 2686 2690 2597 2660 2935 2981 2837 2391 2248 1806 1832 2023 2001 2110 2063 2368 2706 2827 2698 2452 1643 1935 2661 2720 2554 2724 3251 3301 3136 2740 2335 2301 3177 3487 3484 3204 2396 2355 2605 2695
2708 2791 2908 2888 2576 2599 3107 3344 3182 2696 2480 2433 1973 2145 2122 2204 2504 2294 2258 2702 2550 2373 2322 1669 2514 2723 2515 2428 2924 3278 3278 2946 2709 2765 2790 3365 3310 3386 3299 3122 2611 2998
2921 3165 2930 2885 2754 2744 2929 2973 3192 3035 2636 2681 2240 2001 2294 2244 2694 2712 2496 2493 2592 2507 2824 2378 2668 2835 2759 2566 2824 3216 3445 2936 2543 2760 2893 3280 3548 3517 3401 3357 3345 3269
3204 3002 2823 2847 2729 2734 2690 2583 2737 2945 2840 2672 2568 1924 2242 2390 2391 2848 2917 2916 2626 2683 2938 3042 2937 2968 3025 2730 2695 3003 3265 3407 3068 2639 2941 3207 3180 3303 3336 3310 3041 3205
2914 2855 2986 2891 2646 2464 2453 2502 2299 2459 2773 2709 2644 2027 1758 2539 2594 2798 3141 3284 2998 2891 3070 3394 3254 3255 3313 3020 2745 2723 3129 3284 3334 3125 2961 3298 3649 3558 3296 3054 3060 2870
2974 2938 2959 2952 2659 2433 2348 2395 2116 2070 2421 2776 2697 2272 1816 2120 2751 2808 2956 3358 3393 3158 3234 3610 3602 3612 3447 3138 2592 2616 2776 3131 3158 3410 3141 3260 3624 3746 3773 3543 3183 3113
3039 2832 2752 2725 2757 2372 2200 2178 2025 1764 1842 2531 2594 2358 1983 1865 2547 2991 2821 3247 3627 3534 3438 3614 3900 3881 4020 3652 3036 2717 2823 2983 2734 2918 3072 3228 3520 3659 3420 3265 3275 3220
3086 2978 2760 3072 2910 2802 2374 2130 2046 1736 1754 2028 2621 2570 2105 1834 1966 2797 2997 3050 3587 3609 3694 3900 4187 4107 4009 4212 3873 2728 2474 2940 3034 2742 2645 3110 3189 3360 3367 2462 2374 2564
3436 3174 2897 3149 2963 3086 2404 2196 2129 1994 1962 2021 2601 2643 2316 1945 1820 2206 2990 3215 3417 3843 3745 3643 3876 4041 4000 4217 4190 3542 2626 2316 2912 2840 2548 2645 3008 3011 3061 2898 2061 1587
4137 3715 3644 3304 3168 3287 3282 2715 2309 2325 1770 1924 2479 2775 2736 2497 2215 1993 2574 3166 3293 3650 3782 3441 3343 3711 3778 3557 3790 4043 3330 2215 2392 2966 2894 2329 2460 2793 2620 2588 2550 2053
4024 4011 4187 4020 3754 3588 3616 3384 3136 2673 2732 3167 3070 3106 3431 3539 2757 2081 2046 2789 3174 3398 3580 3351 3021 3010 3180 3323 3406 3562 3736 3171 2488 2763 3173 3097 2378 2782 2819 2168 1995 2158
4188 4280 4350 4246 4215 4119 4152 3990 3544 3474 3496 3610 3125 3235 3848 3299 2888 2642 2657 2288 2832 3154 3262 3342 2904 2511 2798 3130 3201 3384 3507 3808 3022 2474 2716 3242 3094 2380 2567 2607 2016 1467
4450 4414 4391 4315 4407 4460 4400 4201 4105 3907 3510 3139 3128 3423 3528 3776 3705 3072 2866 2619 2424 2985 3220 3236 3127 2421 2544 2846 3009 3172 3228 3412 2853 2585 2090 2414 2896 2999 2375 2457 2708 2338
4679 4624 4554 4534 4629 4647 4680 4432 4081 4018 3580 3404 3463 3658 3920 3978 3619 3501 3259 3518 3012 2890 3477 3280 3380 2780 2630 2698 2830 2900 2961 3102 3130 2416 2394 2093 2405 2803 2959 2707 3209 3248
4667 4651 4798 4862 4869 4849 4865 4689 4207 4224 3998 3584 3588 3768 4081 4255 3884 3565 3665 3651 3246 2930 3124 3244 3069 2983 2796 2779 2693 2687 2688 2607 2965 2442 2364 2539 2558 2766 3285 3337 3426 3613
4763 4818 4870 4892 4879 4819 4845 4743 4548 4550 4397 3862 3689 3723 3947 4146 4199 3737 3851 3857 3686 3284 2864 2762 2718 2668 2824 2856 2817 2693 2488 2429 2939 2919 2752 2653 2844 3059 3355 3946 3972 4021
4649 4609 4872 4967 4927 4902 4959 4766 4719 4593 4586 4125 3835 3731 3811 3985 4127 3780 3859 3856 3786 3783 3430 2953 2970 2597 2528 2753 2821 2767 2638 2587 2947 2968 3106 3060 3033 3063 3336 3603 3870 4176
4698 4634 4871 4932 4907 4916 4821 4656 4726 4681 4486 4339 3938 3603 3449 3761 3935 3925 3697 3666 3762 3910 3665 3548 3150 4316 2537 2523 2671 2668 2597 2892 3195 3222 3298 3370 3381 3468 3478 3672 3960 4041
4633 4606 4872 4857 4976 4923 4645 4763 4656 4703 4465 4388 4025 3726 3196 3317 3602 3760 3802 3674 3633 3713 3776 3545 3319 3825 2976 2706 2518 2510 2500 3171 3392 3397 3390 3454 3541 3662 3715 3706 3948 4076
4546 4707 4839 4904 5039 4805 4761 4727 4531 4612 4537 4461 4228 3653 3224 3068 3049 3459 3682 3687 3582 3398 3566 3648 3535 3355 3001 2964 2798 2536 2435 3044 3617 3577 3450 3576 3796 3755 4058 4137 3930 4162

ECMWFNIL_con_mucape_072.txt.gz
CAPE
2497 2363 2061 1744 1494 1021 1639 1814 1607 1513 1502 1228 1874 1778 1678 2011 2046 2727 2315 2856 3361 3344 3458 4092 3988 3963 3764 3940 3791 3625 3820 3203 3323 3516 3350 3317 3524 2888 2746 2475 3386 3386
2862 2639 2370 2058 1798 1504 1978 2154 1963 1701 1968 1707 1374 2134 2138 2236 1877 2478 2585 2873 3333 3231 3633 3588 4083 4083 4029 3760 3982 3934 4120 3920 3806 2760 3175 3472 3575 2968 2514 2806 2813 4030
2816 2996 2739 2231 1799 1814 1044 1986 2386 2195 2144 1656 1441 2254 2201 1966 2115 2109 2874 2696 2824 2740 3715 3594 3659 4045 3986 4003 4107 3831 3820 4151 3772 3116 3291 3308 3438 3323 3102 2085 2398 2638
2954 2899 2482 1985 1817 1768 1234 1499 2375 2354 1797 1834 1207 1011 1559 1166 1668 2372 2603 3170 2951 3192 3411 3245 3104 3284 3865 3902 3863 3621 3688 4084 3667 3945 3648 3686 3656 3204 3154 3123 2577 2533
2664 2756 2694 2500 2374 2202 1692 1431 1374 2148 1718 1769 1489 995 1154 2125 2169 2402 2468 2853 3102 3089 3483 3341 3328 3319 3926 3948 3884 3677 3470 3609 3386 4078 4004 3893 3991 3739 3174 3217 3246 2936
2587 2638 2815 2894 2826 2810 2278 1731 1563 1580 1797 1437 1853 1517 1195 1696 2704 2144 2572 2522 2567 2311 2170 2643 3105 2909 3532 3942 3962 3756 3402 2940 2928 3804 3822 3807 3482 3325 2994 3179 3390 3151
2383 2691 2573 2626 2555 2816 2647 2136 1845 1772 1736 1570 1752 1782 1422 1224 1993 2194 2696 2844 2367 2214 1926 2025 2836 2987 2952 3425 3739 3890 3904 3620 3230 4021 3663 3927 4073 3964 3080 2954 3449 3370
2385 2342 2478 2710 2465 2434 2586 2531 2075 2008 2196 2094 1626 1986 1887 1266 1479 1898 2614 2867 2848 2726 2292 2345 3012 3436 3085 3181 3635 3814 3764 3298 3167 3786 4070 3756 4011 4140 4059 3576 3398 3640
2531 2497 2562 2496 2206 2190 2088 2174 2306 1956 2116 2192 1457 1293 1994 1779 1736 1480 2224 2987 2963 3171 2944 2576 3176 3301 3015 2926 3366 3705 3702 3229 2800 2997 3467 3630 3865 4148 3912 3738 3642 3632
2597 2552 2310 2174 2229 2115 2058 2345 2127 1739 2050 2015 1586 1192 1624 2133 2137 1807 2465 3160 3241 3411 3449 2709 3228 3054 2854 2990 3318 3657 3665 3660 3379 3197 3066 3126 3277 3700 3751 3848 3810 3786
2260 2298 2282 2296 2245 1887 2008 1886 1954 1990 1871 1629 1577 1239 1570 1874 2477 2433 2584 3087 3047 3186 3598 3188 2967 3042 2939 2669 2958 3264 3541 3548 3565 3662 3520 3280 3186 3524 4060 3861 3744 3547
2567 2384 2322 2310 2120 1981 1662 1693 1730 2100 2145 2027 1992 1674 1748 1790 2253 2583 2714 2989 2756 2793 3108 3413 3292 3214 3221 2993 2662 2728 3276 3367 3664 3760 3407 3510 3596 3643 3724 3851 3780 3707
2493 2576 2616 2237 2414 2074 1701 1793 1929 2058 2003 1933 1992 1822 1539 1432 1767 2331 2752 3180 3044 2851 2762 3239 3524 3444 3539 3543 3154 2883 3060 3170 3150 3492 3396 3326 3266 3245 3406 3629 3647 3521
2836 2464 2328 2770 2573 2319 2210 2099 1912 1926 2204 2384 2282 2070 1446 1465 1626 2050 2678 2994 3311 3144 3017 3190 3629 3617 3751 3872 3624 3261 3141 3127 3118 3136 3155 3295 3059 3120 3158 3191 3577 3534
2945 2863 2894 2968 2675 2697 2480 2273 2122 2106 2250 2569 2692 2232 1839 1490 1541 1852 2294 2638 3168 3364 3283 3185 3372 3594 3580 3838 3742 3424 3011 2872 3103 3018 2948 2966 3161 2954 3122 3238 3161 3112
3379 3108 2940 3138 3049 2970 2759 2481 2407 2337 2013 2441 2837 2587 2456 2098 1551 2171 2550 2705 3030 3515 3473 3208 3136 3347 3372 3343 3374 3388 3063 2269 2817 3068 2835 2748 3145 3100 3014 3178 2946 2773
3494 3250 3220 3435 3320 3250 3016 2814 2569 2345 2255 2370 2880 2796 2600 2659 2145 2095 2413 2669 2722 2924 3260 3069 2890 2830 3295 3314 3322 3218 3021 2640 2450 3118 3308 3190 2913 3159 3150 2813 2707 2838
3576 3594 3561 3555 3502 3429 3208 3080 2830 2709 2540 2553 2776 2887 2946 2873 2601 2270 2315 2702 2795 2860 3010 3093 3357 3091 3224 3235 3289 3332 3144 2970 2501 2602 2984 3198 3096 2657 2902 2849 2650 2326
3822 3852 3788 3642 3624 3610 3476 3196 2995 3019 2833 2666 2594 3059 3312 3224 2834 2570 2410 2477 2858 3085 3126 3138 3287 2700 2748 3112 3171 3252 3185 3018 2697 2232 2009 2520 2903 2969 2597 2593 2604 2530
4053 4070 4008 3831 3806 3820 3732 3410 3057 3138 2869 2708 2571 3014 3456 3302 3176 2725 2652 2644 2713 3298 3240 3205 3302 2890 2438 2763 3058 3153 3178 3056 3203 2649 2251 1996 2554 3149 3016 2741 2872 2928
4378 4281 4284 4148 4004 3990 3926 3651 3247 3211 3228 2601 2362 2669 3393 3531 3070 2787 2805 2809 2575 3047 3526 3088 2994 2773 2511 2424 2802 3041 3077 3003 3174 2826 2475 2377 2538 2991 3357 3084 2978 3089
4590 4501 4528 4425 4243 4107 4061 3880 3537 3386 3396 2848 2387 2246 2743 3463 3517 2987 3070 3034 2742 2502 2464 2956 2467 2537 2651 2512 2457 2762 2889 2858 2896 3156 2868 2733 2956 3183 3280 3571 3503 3365
4652 4577 4656 4602 4475 4244 4175 4058 3804 3566 3543 3171 2731 2447 2471 2880 3324 3027 3178 3044 2822 2764 2550 2621 2704 2570 2602 2608 2609 2507 2567 2609 2920 3097 3092 2892 2873 3374 3960 4235 4128 3892
4643 4609 4798 4767 4612 4420 4341 4209 4048 3616 3400 3272 2987 2580 2447 2699 3049 3496 3441 3126 2952 2926 2838 2882 2834 3543 2626 2512 2674 2647 2634 2743 2933 3204 3219 3075 3081 3123 3272 3644 3915 4259
5002 4863 4941 4856 4793 4660 4491 4511 4197 3812 3385 3479 2892 2749 2893 3311 3596 3485 3244 3109 2858 2852 2948 3077 2772 3741 2490 2497 2506 2600 2645 2786 3174 3348 3331 3335 3280 3318 3344 3233 3316 3553
4821 5156 5203 4953 5124 5028 4962 5053 4736 3867 3527 3271 3048 2708 2788 3000 3404 3600 3398 3234 3017 3084 3378 3349 3046 3315 2838 2454 2495 2519 2611 2820 3512 3482 3371 3515 3549 3673 3760 3622 3466 3482

ECMWFNIL_con_mucape_075.txt.gz
CAPE
601 564 239 362 392 428 161 177 180 536 317 111 1548 1689 1809 1890 1751 1793 2398 2457 2422 2329 2873 2689 2625 3045 2792 2423 3218 2617 3192 3058 2555 2740 2913 2776 3137 3104 3098 2944 3178 2878
628 765 597 280 313 700 368 182 164 361 676 322 304 942 1687 1793 1787 1723 2095 2359 2544 2252 2400 3123 2726 3042 2962 2987 3026 2680 2652 2950 2772 3309 2540 2670 2927 2780 2720 2769 2963 2741
788 833 776 431 288 468 783 322 300 176 603 593 580 596 749 1284 1644 1783 1666 2190 2383 2329 2410 2709 3165 2802 2952 2911 3172 3049 2872 2886 2795 2847 2748 2718 2500 2372 2399 2480 2455 2912
957 846 822 665 389 330 860 649 582 323 358 692 815 978 820 888 1071 1227 1859 2709 2158 2216 2462 2525 3050 3100 3005 3117 3167 2908 3125 3076 3022 2856 2943 2947 2882 2665 2592 2326 2254 2307
1148 960 830 768 560 453 439 961 873 628 536 548 786 1091 1142 858 1021 821 1613 2292 2140 2174 2522 2536 2706 3071 3134 3138 3272 2955 2932 3078 3104 2990 2946 3098 3004 2716 2656 2749 2653 2436
1448 1208 1055 830 676 604 394 760 1060 978 790 746 707 908 1253 980 940 1022 832 2128 2162 2137 2455 2647 2595 2800 3087 3102 3126 3000 2788 2879 3041 2896 2934 2947 3096 3203 2871 2604 2454 2555
1698 1580 1437 1141 882 741 587 413 909 1179 1016 919 835 634 1047 1149 954 1120 920 1433 2142 2100 2510 2556 2582 2541 2888 3020 3086 2966 2728 2751 2810 2765 2878 2834 2783 2865 2881 2695 2616 2488
1753 1719 1710 1514 1215 994 902 563 540 1029 1183 986 1022 725 382 895 1342 1165 1210 1144 1759 2007 2294 2552 2480 2381 2510 2951 3004 3031 2826 2820 2676 2443 2533 2693 2767 2712 2906 2989 2668 2407
1695 1736 1780 1766 1586 1375 1266 974 662 703 1072 1072 1020 1023 653 318 786 1394 1504 1316 1434 1748 1885 2327 2454 2332 2263 2672 2957 2950 2901 2862 2821 2741 2838 2631 2844 2888 2904 2996 3072 2991
1712 1636 1752 1871 1801 1702 1672 1456 1037 817 930 1094 993 1102 1042 668 344 1163 1693 1624 1497 1546 1631 1666 2057 2243 2194 2294 2710 2842 2826 2787 2754 2621 2748 2898 2785 2924 3016 3032 3000 2920
1697 1576 1588 1731 1848 1836 1852 1836 1523 1131 1015 1102 1077 1027 1161 1027 657 612 1541 1870 1796 1774 1689 1577 1699 2014 2192 2191 2363 2688 2754 2728 2674 2587 2423 2508 2831 2794 3414 3157 3059 2902
1685 1533 1510 1544 1691 1784 1815 1907 1811 1512 1215 1248 1226 1051 1062 1170 1017 676 874 1878 2011 2042 2048 1780 1715 1975 2140 2194 2210 2483 2638 2664 2659 2607 2516 2232 2251 2643 3020 3069 3052 3022
1718 1522 1474 1481 1591 1639 1716 1806 1810 1736 1475 1300 1376 1243 1007 1096 1188 1036 864 1307 1980 2111 2276 2164 1850 1972 2118 2141 2163 2265 2547 2659 2674 2642 2621 2613 2236 2118 2315 2934 3066 3032
1798 1607 1523 1496 1518 1587 1659 1717 1740 1755 1657 1411 1320 1329 1112 980 1169 1308 1154 1170 1620 1994 2227 2412 2173 1933 2078 2080 2033 2090 2339 2611 2631 2652 2615 2634 2709 2474 2306 2398 2720 2991
1871 1723 1640 1590 1577 1587 1630 1684 1690 1724 1706 1513 1295 1271 1174 980 1116 1378 1474 1442 1564 1847 2046 2299 2452 2175 2062 2087 2000 1948 2058 2407 2535 2590 2661 2655 2630 2629 2643 2620 2669 2754
2034 1786 1734 1711 1683 1603 1610 1598 1610 1610 1615 1640 1458 1306 1210 1064 1167 1346 1602 1696 1732 1822 1899 2009 2243 2418 2380 2245 2125 2069 2042 2160 2390 2460 2559 2667 2672 2588 2487 2491 2540 2674
2339 1914 1752 1792 1809 1741 1660 1559 1498 1502 1519 1753 1707 1491 1386 1236 1177 1367 1541 1791 1941 1974 1882 1872 1934 2141 2410 2446 2378 2242 2179 2199 2264 2325 2341 2463 2593 2608 2520 2434 2402 2431
2656 2225 1864 1887 1890 1854 1745 1611 1476 1429 1465 1686 1863 1736 1501 1384 1202 1311 1505 1682 1949 2161 2111 1995 1967 1994 2214 2439 2524 2481 2363 2320 2259 2298 2275 2232 2281 2408 2495 2466 2453 2484
2780 2428 2083 2017 1984 1960 1842 1688 1566 1537 1512 1586 1833 1860 1667 1511 1365 1193 1520 1629 1790 2113 2328 2289 2182 2112 2194 2358 2496 2594 2584 2394 2227 2158 2263 2270 2166 2131 2203 2326 2341 2359
2921 2706 2180 2168 2118 2095 1982 1802 1649 1651 1619 1563 1758 1967 1838 1653 1604 1366 1449 1778 1827 1982 2298 2446 2412 2321 2285 2361 2451 2529 2616 2568 2272 2050 1915 2079 2256 2185 2096 2130 2270 2292
3020 2836 2460 2326 2257 2245 2134 1956 1771 1710 1715 1624 1642 1970 1988 1884 1814 1640 1415 1760 2044 2034 2166 2424 2517 2503 2419 2346 2402 2486 2570 2649 2429 2131 1812 1650 1897 2253 2288 2170 2096 2135
2972 2818 2599 2444 2400 2394 2309 2121 1916 1776 1797 1736 1607 1816 2051 1982 1910 1819 1618 1539 1973 2222 2190 2312 2519 2615 2553 2452 2438 2500 2575 2604 2540 2351 2016 1732 1550 1608 2078 2284 2182 2040
2892 2772 2566 2560 2524 2529 2476 2330 2103 1883 1820 1837 1694 1642 2026 2070 1998 1912 1785 1597 1611 2130 2374 2337 2469 2697 2740 2685 2641 2689 2734 2728 2652 2515 2310 2052 1918 1806 1776 2130 2337 2256
2862 2654 2613 2679 2639 2609 2585 2524 2324 2040 1865 1928 1853 1648 1794 2131 2111 2014 1896 1771 1630 1644 2158 2495 2486 2567 2779 2819 2748 2632 2600 2623 2637 2534 2446 2280 2048 2002 2306 2787 3082 3754
3213 2996 2849 2794 2747 2677 2645 2635 2537 2278 1969 1932 1966 1788 1637 1990 2243 2157 2032 1956 1838 1733 1677 1940 2390 2565 2574 2663 2733 2701 2582 2446 2408 2403 2400 2361 2235 2047 1923 1982 2127 2784
3288 3132 2998 2935 2888 2813 2725 2705 2652 2487 2174 1969 1985 1908 1728 1697 2176 2247 2184 2118 2102 2069 1964 1798 1699 2066 2380 2476 2410 2526 2523 2453 2397 2330 2300 2326 2288 2202 2065 1908 1853 1815